Spokane, WA
on Friday, November 9, 2012

Friday
Previous Day Next Day
Daily Summary
 ActualAverageRecord
Temperature
Mean Temperature °F 38°F  
Max Temperature 32°F 45°F 62°F (1899)
Min Temperature 25°F 32°F 12°F (1945)
Degree Days
Heating Degree Days 36 27  
Month to date heating degree days 183 228  
Since 1 July heating degree days 789 1016  
Cooling Degree Days 0 0  
Month to date cooling degree days 0 0  
Year to date cooling degree days 535 450  
Moisture
Dew Point 28°F   
Average Humidity 92    
Maximum Humidity 100    
Minimum Humidity 84    
Precipitation
Precipitation 0.16 in 0.07 in 0.74 in (1973)
Month to date precipitation 0.72 0.61  
Year to date precipitation 16.22 12.57  
Snow
Snow 1.10 in 0.20 in 5.30 in (1977)
Month to date snowfall 2.9 0.9  
Since 1 July snowfall 2.9 1.0  
Since 1 September snowfall 2.9 1.0  
Snow Depth 3.00 in   
Wind
Wind Speed 6 mph   
Max Wind Speed 12 mph   
Max Gust Speed 18 mph   
Visibility 5 miles   
Events Snow   

Key: T is trace of precipitation, MM is missing value
Source: NWS Daily Summary
Time(PST)TemperatureDew PointHumidity Pressure Visibility Wind DirectionWind SpeedGust SpeedPrecipitationEvents Conditions
12:53 AM 30.9°F 30.9°F 100% 29.74 in 0.5 miles NNE 8.1 mph - 0.04 in Snow Light Snow
1:53 AM 30.9°F 30.0°F 96% 29.75 in 0.5 miles NE 5.8 mph - 0.02 in Snow Light Snow
2:53 AM 30.9°F 30.0°F 96% 29.76 in 0.5 miles NE 11.5 mph - 0.01 in Snow Light Snow
3:53 AM 30.9°F 30.0°F 96% 29.78 in 0.5 miles North 6.9 mph - 0.05 in Snow Light Snow
4:44 AM 30.2°F 28.4°F 93% 29.74 in 3.0 miles North 8.1 mph - 0.02 in Snow Light Snow
4:53 AM 30.9°F 30.0°F 96% 29.79 in 3.0 miles North 6.9 mph - 0.02 in Snow Light Snow
5:53 AM 30.0°F 28.9°F 96% 29.81 in 3.0 miles North 9.2 mph - 0.00 in Snow Light Snow
6:53 AM 30.0°F 28.9°F 96% 29.81 in 2.5 miles NNE 8.1 mph - 0.00 in Snow Light Snow
7:13 AM 30.2°F 28.4°F 93% 29.76 in 2.5 miles NNE 6.9 mph - 0.00 in Snow Light Snow
7:46 AM 30.2°F 28.4°F 93% 29.77 in 3.0 miles NNE 5.8 mph - 0.00 in Snow Light Snow
7:53 AM 30.0°F 28.9°F 96% 29.83 in 3.0 miles NNE 4.6 mph - 0.00 in Snow Light Snow
8:08 AM 30.2°F 28.4°F 93% 29.78 in 1.5 miles North 5.8 mph - 0.00 in Snow Light Snow
8:45 AM 30.2°F 28.4°F 93% 29.78 in 1.5 miles North 5.8 mph - 0.00 in Snow Light Snow
8:53 AM 30.0°F 28.9°F 96% 29.84 in 1.0 miles NNE 6.9 mph - 0.00 in Snow Light Snow
9:15 AM 30.2°F 28.4°F 93% 29.78 in 1.0 miles NNE 5.8 mph - 0.01 in Snow Light Snow
9:53 AM 30.0°F 28.0°F 92% 29.85 in 1.5 miles North 6.9 mph - 0.01 in Snow Light Snow
10:53 AM 30.0°F 28.0°F 92% 29.86 in 2.5 miles North 6.9 mph - 0.01 in Snow Light Snow
11:05 AM 30.2°F 28.4°F 93% 29.80 in 3.0 miles North 5.8 mph - 0.00 in Snow Light Snow
11:23 AM 30.2°F 28.4°F 93% 29.79 in 2.5 miles NNE 4.6 mph - 0.00 in Snow Light Snow
11:47 AM 30.2°F 28.4°F 93% 29.79 in 5.0 miles NNE 6.9 mph - 0.00 in   Overcast
11:53 AM 30.0°F 28.0°F 92% 29.86 in 9.0 miles NNE 5.8 mph - 0.00 in   Overcast
12:42 PM 30.2°F 28.4°F 93% 29.80 in 10.0 miles North 5.8 mph - N/A   Overcast
12:53 PM 30.0°F 28.0°F 92% 29.86 in 10.0 miles North 5.8 mph - N/A   Overcast
1:26 PM 30.2°F 28.4°F 93% 29.80 in 7.0 miles North 8.1 mph - N/A   Overcast
1:53 PM 30.0°F 28.0°F 92% 29.86 in 9.0 miles North 8.1 mph - N/A   Overcast
2:53 PM 30.0°F 28.0°F 92% 29.86 in 10.0 miles NNE 6.9 mph - 0.00 in   Overcast
3:53 PM 30.0°F 28.0°F 92% 29.87 in 3.0 miles NNE 5.8 mph - 0.00 in Snow Light Snow
4:53 PM 30.0°F 27.0°F 88% 29.88 in 10.0 miles NE 4.6 mph - 0.00 in   Overcast
5:53 PM 30.0°F 27.0°F 88% 29.89 in 10.0 miles NE 6.9 mph - N/A   Overcast
6:53 PM 28.9°F 27.0°F 92% 29.89 in 10.0 miles NNE 5.8 mph - N/A   Overcast
7:53 PM 28.0°F 26.1°F 92% 29.90 in 10.0 miles North 6.9 mph - N/A   Overcast
8:53 PM 28.0°F 25.0°F 88% 29.91 in 10.0 miles North 5.8 mph - N/A   Overcast
9:53 PM 27.0°F 24.1°F 89% 29.92 in 10.0 miles North 3.5 mph - N/A   Mostly Cloudy
10:27 PM 26.6°F 23.0°F 86% 29.85 in 10.0 miles North 3.5 mph - N/A   Mostly Cloudy
10:53 PM 26.1°F 23.0°F 88% 29.92 in 10.0 miles North 5.8 mph - N/A   Mostly Cloudy
11:53 PM 26.1°F 23.0°F 88% 29.93 in 10.0 miles Calm Calm - N/A   Overcast
Moon Phase
Nov. 09 Nov. 13 Nov. 20 Nov. 28 Dec. 06
Sunrise:06:47 AM (PST) Moon Rise:01:32 AM (PST)11/9
Sunset:04:20 PM (PST) Moon Set:01:52 PM (PST)11/9

Copyright © 2014 The Weather Underground, Inc.